Year,Month,Day,Hour,Minute,Value (Times are PST for temperature in C)
2015,07,15,00,00,16.20
2015,07,15,00,01,16.20
2015,07,15,00,02,16.20
2015,07,15,00,03,16.20
2015,07,15,00,04,16.20
2015,07,15,00,05,16.10
2015,07,15,00,06,16.10
2015,07,15,00,07,16.10
2015,07,15,00,08,16.10
2015,07,15,00,09,16.10
2015,07,15,00,10,16.00
2015,07,15,00,11,16.00
2015,07,15,00,12,16.00
2015,07,15,00,13,16.00
2015,07,15,00,14,15.90
2015,07,15,00,15,15.90
2015,07,15,00,16,15.90
2015,07,15,00,17,15.90
2015,07,15,00,18,15.90
2015,07,15,00,19,15.90
2015,07,15,00,20,15.90
2015,07,15,00,21,15.90
2015,07,15,00,22,15.80
2015,07,15,00,23,15.80
2015,07,15,00,24,15.80
2015,07,15,00,25,15.80
2015,07,15,00,26,15.80
2015,07,15,00,27,15.80
2015,07,15,00,28,15.80
2015,07,15,00,29,15.80
2015,07,15,00,30,15.80
2015,07,15,00,31,15.80
2015,07,15,00,32,15.70
2015,07,15,00,33,15.70
2015,07,15,00,34,15.70
2015,07,15,00,35,15.70
2015,07,15,00,36,15.70
2015,07,15,00,37,15.70
2015,07,15,00,38,15.70
2015,07,15,00,39,15.70
2015,07,15,00,40,15.70
2015,07,15,00,41,15.70
2015,07,15,00,42,15.60
2015,07,15,00,43,15.60
2015,07,15,00,44,15.70
2015,07,15,00,45,15.70
2015,07,15,00,46,15.70
2015,07,15,00,47,15.70
2015,07,15,00,48,15.70
2015,07,15,00,49,15.70
2015,07,15,00,50,15.70
2015,07,15,00,51,15.70
2015,07,15,00,52,15.70
2015,07,15,00,53,15.70
2015,07,15,00,54,15.70
2015,07,15,00,55,15.70
2015,07,15,00,56,15.70
2015,07,15,00,57,15.60
2015,07,15,00,58,15.60
2015,07,15,00,59,15.60
2015,07,15,01,00,15.60
2015,07,15,01,01,15.60
2015,07,15,01,02,15.60
2015,07,15,01,03,15.60
2015,07,15,01,04,15.60
2015,07,15,01,05,15.50
2015,07,15,01,06,15.50
2015,07,15,01,07,15.50
2015,07,15,01,08,15.50
2015,07,15,01,09,15.50
2015,07,15,01,10,15.50
2015,07,15,01,11,15.50
2015,07,15,01,12,15.50
2015,07,15,01,13,15.50
2015,07,15,01,14,15.40
2015,07,15,01,15,15.40
2015,07,15,01,16,15.40
2015,07,15,01,17,15.40
2015,07,15,01,18,15.30
2015,07,15,01,19,15.30
2015,07,15,01,20,15.20
2015,07,15,01,21,15.20
2015,07,15,01,22,15.20
2015,07,15,01,23,15.10
2015,07,15,01,24,15.10
2015,07,15,01,25,15.10
2015,07,15,01,26,15.10
2015,07,15,01,27,15.00
2015,07,15,01,28,15.00
2015,07,15,01,29,15.00
2015,07,15,01,30,14.90
2015,07,15,01,31,14.90
2015,07,15,01,32,14.90
2015,07,15,01,33,14.90
2015,07,15,01,34,14.90
2015,07,15,01,35,14.90
2015,07,15,01,36,14.80
2015,07,15,01,37,14.80
2015,07,15,01,38,14.80
2015,07,15,01,39,14.80
2015,07,15,01,40,14.80
2015,07,15,01,41,14.70
2015,07,15,01,42,14.70
2015,07,15,01,43,14.70
2015,07,15,01,44,14.70
2015,07,15,01,45,14.70
2015,07,15,01,46,14.60
2015,07,15,01,47,14.60
2015,07,15,01,48,14.60
2015,07,15,01,49,14.60
2015,07,15,01,50,14.60
2015,07,15,01,51,14.60
2015,07,15,01,52,14.50
2015,07,15,01,53,14.50
2015,07,15,01,54,14.50
2015,07,15,01,55,14.40
2015,07,15,01,56,14.40
2015,07,15,01,57,14.40
2015,07,15,01,58,14.40
2015,07,15,01,59,14.40
2015,07,15,02,00,14.40
2015,07,15,02,01,14.40
2015,07,15,02,02,14.30
2015,07,15,02,03,14.30
2015,07,15,02,04,14.30
2015,07,15,02,05,14.30
2015,07,15,02,06,14.30
2015,07,15,02,07,14.30
2015,07,15,02,08,14.30
2015,07,15,02,09,14.30
2015,07,15,02,10,14.30
2015,07,15,02,11,14.30
2015,07,15,02,12,14.20
2015,07,15,02,13,14.20
2015,07,15,02,14,14.20
2015,07,15,02,15,14.20
2015,07,15,02,16,14.20
2015,07,15,02,17,14.20
2015,07,15,02,18,14.20
2015,07,15,02,19,14.20
2015,07,15,02,20,14.20
2015,07,15,02,21,14.20
2015,07,15,02,22,14.20
2015,07,15,02,23,14.20
2015,07,15,02,24,14.20
2015,07,15,02,25,14.20
2015,07,15,02,26,14.10
2015,07,15,02,27,14.10
2015,07,15,02,28,14.10
2015,07,15,02,29,14.10
2015,07,15,02,30,14.10
2015,07,15,02,31,14.10
2015,07,15,02,32,14.10
2015,07,15,02,33,14.10
2015,07,15,02,34,14.10
2015,07,15,02,35,14.10
2015,07,15,02,36,14.10
2015,07,15,02,37,14.10
2015,07,15,02,38,14.10
2015,07,15,02,39,14.10
2015,07,15,02,40,14.00
2015,07,15,02,41,14.00
2015,07,15,02,42,14.00
2015,07,15,02,43,14.00
2015,07,15,02,44,14.00
2015,07,15,02,45,14.00
2015,07,15,02,46,14.00
2015,07,15,02,47,13.90
2015,07,15,02,48,13.90
2015,07,15,02,49,13.90
2015,07,15,02,50,13.90
2015,07,15,02,51,13.90
2015,07,15,02,52,13.90
2015,07,15,02,53,13.90
2015,07,15,02,54,13.90
2015,07,15,02,55,13.80
2015,07,15,02,56,13.80
2015,07,15,02,57,13.80
2015,07,15,02,58,13.80
2015,07,15,02,59,13.80
2015,07,15,03,00,13.80
2015,07,15,03,01,13.80
2015,07,15,03,02,13.80
2015,07,15,03,03,13.80
2015,07,15,03,04,13.80
2015,07,15,03,05,13.80
2015,07,15,03,06,13.80
2015,07,15,03,07,13.80
2015,07,15,03,08,13.80
2015,07,15,03,09,13.80
2015,07,15,03,10,13.80
2015,07,15,03,11,13.80
2015,07,15,03,12,13.80
2015,07,15,03,13,13.80
2015,07,15,03,14,13.80
2015,07,15,03,15,13.80
2015,07,15,03,16,13.80
2015,07,15,03,17,13.80
2015,07,15,03,18,13.80
2015,07,15,03,19,13.80
2015,07,15,03,20,13.80
2015,07,15,03,21,13.80
2015,07,15,03,22,13.80
2015,07,15,03,23,13.80
2015,07,15,03,24,13.80
2015,07,15,03,25,13.80
2015,07,15,03,26,13.80
2015,07,15,03,27,13.80
2015,07,15,03,28,13.80
2015,07,15,03,29,13.80
2015,07,15,03,30,13.80
2015,07,15,03,31,13.80
2015,07,15,03,32,13.70
2015,07,15,03,33,13.70
2015,07,15,03,34,13.70
2015,07,15,03,35,13.70
2015,07,15,03,36,13.70
2015,07,15,03,37,13.70
2015,07,15,03,38,13.70
2015,07,15,03,39,13.70
2015,07,15,03,40,13.70
2015,07,15,03,41,13.70
2015,07,15,03,42,13.70
2015,07,15,03,43,13.70
2015,07,15,03,44,13.60
2015,07,15,03,45,13.60
2015,07,15,03,46,13.60
2015,07,15,03,47,13.60
2015,07,15,03,48,13.60
2015,07,15,03,49,13.60
2015,07,15,03,50,13.60
2015,07,15,03,51,13.50
2015,07,15,03,52,13.50
2015,07,15,03,53,13.50
2015,07,15,03,54,13.50
2015,07,15,03,55,13.40
2015,07,15,03,56,13.40
2015,07,15,03,57,13.40
2015,07,15,03,58,13.40
2015,07,15,03,59,13.40
2015,07,15,04,00,13.40
2015,07,15,04,01,13.40
2015,07,15,04,02,13.40
2015,07,15,04,03,13.40
2015,07,15,04,04,13.40
2015,07,15,04,05,13.40
2015,07,15,04,06,13.40
2015,07,15,04,07,13.40
2015,07,15,04,08,13.40
2015,07,15,04,09,13.40
2015,07,15,04,10,13.30
2015,07,15,04,11,13.30
2015,07,15,04,12,13.30
2015,07,15,04,13,13.30
2015,07,15,04,14,13.30
2015,07,15,04,15,13.30
2015,07,15,04,16,13.30
2015,07,15,04,17,13.30
2015,07,15,04,18,13.30
2015,07,15,04,19,13.30
2015,07,15,04,20,13.40
2015,07,15,04,21,13.30
2015,07,15,04,22,13.30
2015,07,15,04,23,13.30
2015,07,15,04,24,13.30
2015,07,15,04,25,13.30
2015,07,15,04,26,13.30
2015,07,15,04,27,13.30
2015,07,15,04,28,13.20
2015,07,15,04,29,13.20
2015,07,15,04,30,13.20
2015,07,15,04,31,13.20
2015,07,15,04,32,13.10
2015,07,15,04,33,13.10
2015,07,15,04,34,13.10
2015,07,15,04,35,13.10
2015,07,15,04,36,13.10
2015,07,15,04,37,13.10
2015,07,15,04,38,13.10
2015,07,15,04,39,13.10
2015,07,15,04,40,13.20
2015,07,15,04,41,13.20
2015,07,15,04,42,13.20
2015,07,15,04,43,13.20
2015,07,15,04,44,13.20
2015,07,15,04,45,13.20
2015,07,15,04,46,13.20
2015,07,15,04,47,13.20
2015,07,15,04,48,13.20
2015,07,15,04,49,13.20
2015,07,15,04,50,13.20
2015,07,15,04,51,13.20
2015,07,15,04,52,13.20
2015,07,15,04,53,13.20
2015,07,15,04,54,13.20
2015,07,15,04,55,13.20
2015,07,15,04,56,13.20
2015,07,15,04,57,13.20
2015,07,15,04,58,13.20
2015,07,15,04,59,13.10
2015,07,15,05,00,13.10
2015,07,15,05,01,13.10
2015,07,15,05,02,13.10
2015,07,15,05,03,13.10
2015,07,15,05,04,13.10
2015,07,15,05,05,13.10
2015,07,15,05,06,13.10
2015,07,15,05,07,13.10
2015,07,15,05,08,13.10
2015,07,15,05,09,13.10
2015,07,15,05,10,13.10
2015,07,15,05,11,13.10
2015,07,15,05,12,13.10
2015,07,15,05,13,13.10
2015,07,15,05,14,13.10
2015,07,15,05,15,13.10
2015,07,15,05,16,13.10
2015,07,15,05,17,13.20
2015,07,15,05,18,13.20
2015,07,15,05,19,13.20
2015,07,15,05,20,13.20
2015,07,15,05,21,13.20
2015,07,15,05,22,13.20
2015,07,15,05,23,13.20
2015,07,15,05,24,13.20
2015,07,15,05,25,13.20
2015,07,15,05,26,13.20
2015,07,15,05,27,13.20
2015,07,15,05,28,13.20
2015,07,15,05,29,13.10
2015,07,15,05,30,13.10
2015,07,15,05,31,13.10
2015,07,15,05,32,13.10
2015,07,15,05,33,13.10
2015,07,15,05,34,13.10
2015,07,15,05,35,13.10
2015,07,15,05,36,13.00
2015,07,15,05,37,13.00
2015,07,15,05,38,13.00
2015,07,15,05,39,13.00
2015,07,15,05,40,13.00
2015,07,15,05,41,13.00
2015,07,15,05,42,12.90
2015,07,15,05,43,12.90
2015,07,15,05,44,12.90
2015,07,15,05,45,12.90
2015,07,15,05,46,12.90
2015,07,15,05,47,12.90
2015,07,15,05,48,12.90
2015,07,15,05,49,12.90
2015,07,15,05,50,12.90
2015,07,15,05,51,13.00
2015,07,15,05,52,13.00
2015,07,15,05,53,13.00
2015,07,15,05,54,13.10
2015,07,15,05,55,13.10
2015,07,15,05,56,13.10
2015,07,15,05,57,13.10
2015,07,15,05,58,13.10
2015,07,15,05,59,13.10
2015,07,15,06,00,13.10
2015,07,15,06,01,13.10
2015,07,15,06,02,13.10
2015,07,15,06,03,13.10
2015,07,15,06,04,13.10
2015,07,15,06,05,13.10
2015,07,15,06,06,13.10
2015,07,15,06,07,13.10
2015,07,15,06,08,13.10
2015,07,15,06,09,13.10
2015,07,15,06,10,13.20
2015,07,15,06,11,13.20
2015,07,15,06,12,13.20
2015,07,15,06,13,13.10
2015,07,15,06,14,13.10
2015,07,15,06,15,13.10
2015,07,15,06,16,13.10
2015,07,15,06,17,13.10
2015,07,15,06,18,13.10
2015,07,15,06,19,13.10
2015,07,15,06,20,13.10
2015,07,15,06,21,13.10
2015,07,15,06,22,13.10
2015,07,15,06,23,13.10
2015,07,15,06,24,13.10
2015,07,15,06,25,13.10
2015,07,15,06,26,13.10
2015,07,15,06,27,13.10
2015,07,15,06,28,13.10
2015,07,15,06,29,13.10
2015,07,15,06,30,13.10
2015,07,15,06,31,13.10
2015,07,15,06,32,13.10
2015,07,15,06,33,13.10
2015,07,15,06,34,13.10
2015,07,15,06,35,13.10
2015,07,15,06,36,13.10
2015,07,15,06,37,13.10
2015,07,15,06,38,13.20
2015,07,15,06,39,13.20
2015,07,15,06,40,13.20
2015,07,15,06,41,13.20
2015,07,15,06,42,13.30
2015,07,15,06,43,13.30
2015,07,15,06,44,13.30
2015,07,15,06,45,13.30
2015,07,15,06,46,13.40
2015,07,15,06,47,13.40
2015,07,15,06,48,13.40
2015,07,15,06,49,13.50
2015,07,15,06,50,13.50
2015,07,15,06,51,13.50
2015,07,15,06,52,13.50
2015,07,15,06,53,13.60
2015,07,15,06,54,13.60
2015,07,15,06,55,13.70
2015,07,15,06,56,13.80
2015,07,15,06,57,13.80
2015,07,15,06,58,13.90
2015,07,15,06,59,13.90
2015,07,15,07,00,13.90
2015,07,15,07,01,14.00
2015,07,15,07,02,14.10
2015,07,15,07,03,14.10
2015,07,15,07,04,14.20
2015,07,15,07,05,14.20
2015,07,15,07,06,14.30
2015,07,15,07,07,14.30
2015,07,15,07,08,14.30
2015,07,15,07,09,14.40
2015,07,15,07,10,14.40
2015,07,15,07,11,14.40
2015,07,15,07,12,14.50
2015,07,15,07,13,14.50
2015,07,15,07,14,14.60
2015,07,15,07,15,14.60
2015,07,15,07,16,14.70
2015,07,15,07,17,14.70
2015,07,15,07,18,14.70
2015,07,15,07,19,14.70
2015,07,15,07,20,14.80
2015,07,15,07,21,14.80
2015,07,15,07,22,14.80
2015,07,15,07,23,14.80
2015,07,15,07,24,14.80
2015,07,15,07,25,14.90
2015,07,15,07,26,14.90
2015,07,15,07,27,15.00
2015,07,15,07,28,15.00
2015,07,15,07,29,15.10
2015,07,15,07,30,15.10
2015,07,15,07,31,15.20
2015,07,15,07,32,15.20
2015,07,15,07,33,15.20
2015,07,15,07,34,15.30
2015,07,15,07,35,15.30
2015,07,15,07,36,15.30
2015,07,15,07,37,15.40
2015,07,15,07,38,15.50
2015,07,15,07,39,15.50
2015,07,15,07,40,15.60
2015,07,15,07,41,15.60
2015,07,15,07,42,15.70
2015,07,15,07,43,15.70
2015,07,15,07,44,15.70
2015,07,15,07,45,15.80
2015,07,15,07,46,15.80
2015,07,15,07,47,15.80
2015,07,15,07,48,15.90
2015,07,15,07,49,15.90
2015,07,15,07,50,15.90
2015,07,15,07,51,16.00
2015,07,15,07,52,16.00
2015,07,15,07,53,16.10
2015,07,15,07,54,16.10
2015,07,15,07,55,16.20
2015,07,15,07,56,16.20
2015,07,15,07,57,16.30
2015,07,15,07,58,16.40
2015,07,15,07,59,16.50
2015,07,15,08,00,16.60
2015,07,15,08,01,16.70
2015,07,15,08,02,16.80
2015,07,15,08,03,16.80
2015,07,15,08,04,16.90
2015,07,15,08,05,16.90
2015,07,15,08,06,17.00
2015,07,15,08,07,17.00
2015,07,15,08,08,17.10
2015,07,15,08,09,17.10
2015,07,15,08,10,17.10
2015,07,15,08,11,17.10
2015,07,15,08,12,17.10
2015,07,15,08,13,17.10
2015,07,15,08,14,17.10
2015,07,15,08,15,17.20
2015,07,15,08,16,17.20
2015,07,15,08,17,17.20
2015,07,15,08,18,17.20
2015,07,15,08,19,17.20
2015,07,15,08,20,17.20
2015,07,15,08,21,17.10
2015,07,15,08,22,17.10
2015,07,15,08,23,17.10
2015,07,15,08,24,17.10
2015,07,15,08,25,17.10
2015,07,15,08,26,17.10
2015,07,15,08,27,17.10
2015,07,15,08,28,17.10
2015,07,15,08,29,17.10
2015,07,15,08,30,17.10
2015,07,15,08,31,17.10
2015,07,15,08,32,17.10
2015,07,15,08,33,17.10
2015,07,15,08,34,17.20
2015,07,15,08,35,17.20
2015,07,15,08,36,17.20
2015,07,15,08,37,17.20
2015,07,15,08,38,17.20
2015,07,15,08,39,17.20
2015,07,15,08,40,17.30
2015,07,15,08,41,17.30
2015,07,15,08,42,17.30
2015,07,15,08,43,17.40
2015,07,15,08,44,17.40
2015,07,15,08,45,17.50
2015,07,15,08,46,17.50
2015,07,15,08,47,17.50
2015,07,15,08,48,17.60
2015,07,15,08,49,17.60
2015,07,15,08,50,17.60
2015,07,15,08,51,17.70
2015,07,15,08,52,17.70
2015,07,15,08,53,17.70
2015,07,15,08,54,17.80
2015,07,15,08,55,17.80
2015,07,15,08,56,17.80
2015,07,15,08,57,17.90
2015,07,15,08,58,17.90
2015,07,15,08,59,17.90
2015,07,15,09,00,17.90
2015,07,15,09,01,18.00
2015,07,15,09,02,18.00
2015,07,15,09,03,18.00
2015,07,15,09,04,17.90
2015,07,15,09,05,17.90
2015,07,15,09,06,17.90
2015,07,15,09,07,17.90
2015,07,15,09,08,17.90
2015,07,15,09,09,17.90
2015,07,15,09,10,17.90
2015,07,15,09,11,18.00
2015,07,15,09,12,18.00
2015,07,15,09,13,18.00
2015,07,15,09,14,18.00
2015,07,15,09,15,18.10
2015,07,15,09,16,18.10
2015,07,15,09,17,18.10
2015,07,15,09,18,18.10
2015,07,15,09,19,18.10
2015,07,15,09,20,18.10
2015,07,15,09,21,18.10
2015,07,15,09,22,18.10
2015,07,15,09,23,18.00
2015,07,15,09,24,18.00
2015,07,15,09,25,18.00
2015,07,15,09,26,18.10
2015,07,15,09,27,18.10
2015,07,15,09,28,18.10
2015,07,15,09,29,18.10
2015,07,15,09,30,18.10
2015,07,15,09,31,18.10
2015,07,15,09,32,18.10
2015,07,15,09,33,18.20
2015,07,15,09,34,18.20
2015,07,15,09,35,18.20
2015,07,15,09,36,18.20
2015,07,15,09,37,18.20
2015,07,15,09,38,18.20
2015,07,15,09,39,18.20
2015,07,15,09,40,18.20
2015,07,15,09,41,18.20
2015,07,15,09,42,18.20
2015,07,15,09,43,18.20
2015,07,15,09,44,18.20
2015,07,15,09,45,18.20
2015,07,15,09,46,18.20
2015,07,15,09,47,18.20
2015,07,15,09,48,18.20
2015,07,15,09,49,18.20
2015,07,15,09,50,18.20
2015,07,15,09,51,18.30
2015,07,15,09,52,18.30
2015,07,15,09,53,18.40
2015,07,15,09,54,18.40
2015,07,15,09,55,18.50
2015,07,15,09,56,18.50
2015,07,15,09,57,18.50
2015,07,15,09,58,18.60
2015,07,15,09,59,18.70
2015,07,15,10,00,18.70
2015,07,15,10,01,18.80
2015,07,15,10,02,18.90
2015,07,15,10,03,19.00
2015,07,15,10,04,19.10
2015,07,15,10,05,19.10
2015,07,15,10,06,19.10
2015,07,15,10,07,19.10
2015,07,15,10,08,19.10
2015,07,15,10,09,19.10
2015,07,15,10,10,19.10
2015,07,15,10,11,19.10
2015,07,15,10,12,19.20
2015,07,15,10,13,19.20
2015,07,15,10,14,19.30
2015,07,15,10,15,19.40
2015,07,15,10,16,19.50
2015,07,15,10,17,19.60
2015,07,15,10,18,19.70
2015,07,15,10,19,19.80
2015,07,15,10,20,19.80
2015,07,15,10,21,19.90
2015,07,15,10,22,20.00
2015,07,15,10,23,20.00
2015,07,15,10,24,20.10
2015,07,15,10,25,20.00
2015,07,15,10,26,20.00
2015,07,15,10,27,19.90
2015,07,15,10,28,19.80
2015,07,15,10,29,19.80
2015,07,15,10,30,19.70
2015,07,15,10,31,19.60
2015,07,15,10,32,19.60
2015,07,15,10,33,19.50
2015,07,15,10,34,19.50
2015,07,15,10,35,19.40
2015,07,15,10,36,19.30
2015,07,15,10,37,19.30
2015,07,15,10,38,19.30
2015,07,15,10,39,19.30
2015,07,15,10,40,19.30
2015,07,15,10,41,19.40
2015,07,15,10,42,19.40
2015,07,15,10,43,19.50
2015,07,15,10,44,19.50
2015,07,15,10,45,19.60
2015,07,15,10,46,19.60
2015,07,15,10,47,19.60
2015,07,15,10,48,19.70
2015,07,15,10,49,19.70
2015,07,15,10,50,19.70
2015,07,15,10,51,19.70
2015,07,15,10,52,19.70
2015,07,15,10,53,19.70
2015,07,15,10,54,19.70
2015,07,15,10,55,19.60
2015,07,15,10,56,19.60
2015,07,15,10,57,19.70
2015,07,15,10,58,19.70
2015,07,15,10,59,19.80
2015,07,15,11,00,19.90
2015,07,15,11,01,20.00
2015,07,15,11,02,20.10
2015,07,15,11,03,20.20
2015,07,15,11,04,20.30
2015,07,15,11,05,20.30
2015,07,15,11,06,20.40
2015,07,15,11,07,20.40
2015,07,15,11,08,20.40
2015,07,15,11,09,20.50
2015,07,15,11,10,20.50
2015,07,15,11,11,20.60
2015,07,15,11,12,20.60
2015,07,15,11,13,20.70
2015,07,15,11,14,20.70
2015,07,15,11,15,20.80
2015,07,15,11,16,20.80
2015,07,15,11,17,20.80
2015,07,15,11,18,20.80
2015,07,15,11,19,20.90
2015,07,15,11,20,20.90
2015,07,15,11,21,20.90
2015,07,15,11,22,20.80
2015,07,15,11,23,20.80
2015,07,15,11,24,20.60
2015,07,15,11,25,20.40
2015,07,15,11,26,20.30
2015,07,15,11,27,20.30
2015,07,15,11,28,20.30
2015,07,15,11,29,20.30
2015,07,15,11,30,20.30
2015,07,15,11,31,20.30
2015,07,15,11,32,20.30
2015,07,15,11,33,20.20
2015,07,15,11,34,20.20
2015,07,15,11,35,20.10
2015,07,15,11,36,20.00
2015,07,15,11,37,20.00
2015,07,15,11,38,19.90
2015,07,15,11,39,20.00
2015,07,15,11,40,20.00
2015,07,15,11,41,20.10
2015,07,15,11,42,20.10
2015,07,15,11,43,20.10
2015,07,15,11,44,20.10
2015,07,15,11,45,20.10
2015,07,15,11,46,20.10
2015,07,15,11,47,20.20
2015,07,15,11,48,20.20
2015,07,15,11,49,20.30
2015,07,15,11,50,20.30
2015,07,15,11,51,20.30
2015,07,15,11,52,20.40
2015,07,15,11,53,20.50
2015,07,15,11,54,20.60
2015,07,15,11,55,20.60
2015,07,15,11,56,20.60
2015,07,15,11,57,20.50
2015,07,15,11,58,20.60
2015,07,15,11,59,20.60
2015,07,15,12,00,20.60
2015,07,15,12,01,20.70
2015,07,15,12,02,20.70
2015,07,15,12,03,20.80
2015,07,15,12,04,20.90
2015,07,15,12,05,20.90
2015,07,15,12,06,20.90
2015,07,15,12,07,21.00
2015,07,15,12,08,21.00
2015,07,15,12,09,21.00
2015,07,15,12,10,21.00
2015,07,15,12,11,21.00
2015,07,15,12,12,21.00
2015,07,15,12,13,21.00
2015,07,15,12,14,21.00
2015,07,15,12,15,20.90
2015,07,15,12,16,20.90
2015,07,15,12,17,20.90
2015,07,15,12,18,20.90
2015,07,15,12,19,20.90
2015,07,15,12,20,20.90
2015,07,15,12,21,20.90
2015,07,15,12,22,20.90
2015,07,15,12,23,20.90
2015,07,15,12,24,20.90
2015,07,15,12,25,20.90
2015,07,15,12,26,20.90
2015,07,15,12,27,20.90
2015,07,15,12,28,21.00
2015,07,15,12,29,21.00
2015,07,15,12,30,21.00
2015,07,15,12,31,21.00
2015,07,15,12,32,21.00
2015,07,15,12,33,21.10
2015,07,15,12,34,21.20
2015,07,15,12,35,21.40
2015,07,15,12,36,21.50
2015,07,15,12,37,21.70
2015,07,15,12,38,21.80
2015,07,15,12,39,21.90
2015,07,15,12,40,22.00
2015,07,15,12,41,22.00
2015,07,15,12,42,22.00
2015,07,15,12,43,22.00
2015,07,15,12,44,21.90
2015,07,15,12,45,21.90
2015,07,15,12,46,21.90
2015,07,15,12,47,21.90
2015,07,15,12,48,22.10
2015,07,15,12,49,22.20
2015,07,15,12,50,22.20
2015,07,15,12,51,22.30
2015,07,15,12,52,22.30
2015,07,15,12,53,22.40
2015,07,15,12,54,22.60
2015,07,15,12,55,22.70
2015,07,15,12,56,22.90
2015,07,15,12,57,22.90
2015,07,15,12,58,23.00
2015,07,15,12,59,23.00
2015,07,15,13,00,23.00
2015,07,15,13,01,23.00
2015,07,15,13,02,23.00
2015,07,15,13,03,23.00
2015,07,15,13,04,22.90
2015,07,15,13,05,22.90
2015,07,15,13,06,22.80
2015,07,15,13,07,22.70
2015,07,15,13,08,22.70
2015,07,15,13,09,22.80
2015,07,15,13,10,22.80
2015,07,15,13,11,22.80
2015,07,15,13,12,22.80
2015,07,15,13,13,22.80
2015,07,15,13,14,22.70
2015,07,15,13,15,22.70
2015,07,15,13,16,22.70
2015,07,15,13,17,22.70
2015,07,15,13,18,22.80
2015,07,15,13,19,22.90
2015,07,15,13,20,23.00
2015,07,15,13,21,23.10
2015,07,15,13,22,23.20
2015,07,15,13,23,23.30
2015,07,15,13,24,23.40
2015,07,15,13,25,23.60
2015,07,15,13,26,23.60
2015,07,15,13,27,23.60
2015,07,15,13,28,23.50
2015,07,15,13,29,23.40
2015,07,15,13,30,23.20
2015,07,15,13,31,23.10
2015,07,15,13,32,22.90
2015,07,15,13,33,22.70
2015,07,15,13,34,22.60
2015,07,15,13,35,22.40
2015,07,15,13,36,22.30
2015,07,15,13,37,22.30
2015,07,15,13,38,22.30
2015,07,15,13,39,22.30
2015,07,15,13,40,22.20
2015,07,15,13,41,22.10
2015,07,15,13,42,22.00
2015,07,15,13,43,21.90
2015,07,15,13,44,21.90
2015,07,15,13,45,21.90
2015,07,15,13,46,21.90
2015,07,15,13,47,21.90
2015,07,15,13,48,22.00
2015,07,15,13,49,22.00
2015,07,15,13,50,22.10
2015,07,15,13,51,22.20
2015,07,15,13,52,22.20
2015,07,15,13,53,22.30
2015,07,15,13,54,22.50
2015,07,15,13,55,22.60
2015,07,15,13,56,22.70
2015,07,15,13,57,22.80
2015,07,15,13,58,22.90
2015,07,15,13,59,22.90
2015,07,15,14,00,22.90
2015,07,15,14,01,22.90
2015,07,15,14,02,23.00
2015,07,15,14,03,22.90
2015,07,15,14,04,22.80
2015,07,15,14,05,22.70
2015,07,15,14,06,22.60
2015,07,15,14,07,22.50
2015,07,15,14,08,22.40
2015,07,15,14,09,22.40
2015,07,15,14,10,22.30
2015,07,15,14,11,22.30
2015,07,15,14,12,22.30
2015,07,15,14,13,22.40
2015,07,15,14,14,22.40
2015,07,15,14,15,22.40
2015,07,15,14,16,22.40
2015,07,15,14,17,22.40
2015,07,15,14,18,22.40
2015,07,15,14,19,22.40
2015,07,15,14,20,22.40
2015,07,15,14,21,22.40
2015,07,15,14,22,22.50
2015,07,15,14,23,22.50
2015,07,15,14,24,22.50
2015,07,15,14,25,22.40
2015,07,15,14,26,22.40
2015,07,15,14,27,22.40
2015,07,15,14,28,22.40
2015,07,15,14,29,22.40
2015,07,15,14,30,22.40
2015,07,15,14,31,22.40
2015,07,15,14,32,22.40
2015,07,15,14,33,22.40
2015,07,15,14,34,22.30
2015,07,15,14,35,22.30
2015,07,15,14,36,22.20
2015,07,15,14,37,22.10
2015,07,15,14,38,22.00
2015,07,15,14,39,21.90
2015,07,15,14,40,21.90
2015,07,15,14,41,21.90
2015,07,15,14,42,21.90
2015,07,15,14,43,21.90
2015,07,15,14,44,21.90
2015,07,15,14,45,22.00
2015,07,15,14,46,22.00
2015,07,15,14,47,22.00
2015,07,15,14,48,22.00
2015,07,15,14,49,22.00
2015,07,15,14,50,21.90
2015,07,15,14,51,21.90
2015,07,15,14,52,21.80
2015,07,15,14,53,21.80
2015,07,15,14,54,21.80
2015,07,15,14,55,21.80
2015,07,15,14,56,21.80
2015,07,15,14,57,21.80
2015,07,15,14,58,21.80
2015,07,15,14,59,21.80
2015,07,15,15,00,21.80
2015,07,15,15,01,21.70
2015,07,15,15,02,21.70
2015,07,15,15,03,21.70
2015,07,15,15,04,21.60
2015,07,15,15,05,21.50
2015,07,15,15,06,21.40
2015,07,15,15,07,21.30
2015,07,15,15,08,21.10
2015,07,15,15,09,21.00
2015,07,15,15,10,20.80
2015,07,15,15,11,20.70
2015,07,15,15,12,20.70
2015,07,15,15,13,20.60
2015,07,15,15,14,20.50
2015,07,15,15,15,20.50
2015,07,15,15,16,20.40
2015,07,15,15,17,20.30
2015,07,15,15,18,20.30
2015,07,15,15,19,20.30
2015,07,15,15,20,20.30
2015,07,15,15,21,20.30
2015,07,15,15,22,20.30
2015,07,15,15,23,20.30
2015,07,15,15,24,20.30
2015,07,15,15,25,20.30
2015,07,15,15,26,20.20
2015,07,15,15,27,20.20
2015,07,15,15,28,20.10
2015,07,15,15,29,20.10
2015,07,15,15,30,20.10
2015,07,15,15,31,20.00
2015,07,15,15,32,20.00
2015,07,15,15,33,20.00
2015,07,15,15,34,20.00
2015,07,15,15,35,20.10
2015,07,15,15,36,20.10
2015,07,15,15,37,20.10
2015,07,15,15,38,20.10
2015,07,15,15,39,20.10
2015,07,15,15,40,20.00
2015,07,15,15,41,19.90
2015,07,15,15,42,19.90
2015,07,15,15,43,19.90
2015,07,15,15,44,19.90
2015,07,15,15,45,19.90
2015,07,15,15,46,19.80
2015,07,15,15,47,19.80
2015,07,15,15,48,19.70
2015,07,15,15,49,19.70
2015,07,15,15,50,19.70
2015,07,15,15,51,19.70
2015,07,15,15,52,19.70
2015,07,15,15,53,19.70
2015,07,15,15,54,19.70
2015,07,15,15,55,19.70
2015,07,15,15,56,19.80
2015,07,15,15,57,19.80
2015,07,15,15,58,19.80
2015,07,15,15,59,19.90
2015,07,15,16,00,20.00
2015,07,15,16,01,20.00
2015,07,15,16,02,20.10
2015,07,15,16,03,20.10
2015,07,15,16,04,20.00
2015,07,15,16,05,19.90
2015,07,15,16,06,19.80
2015,07,15,16,07,19.70
2015,07,15,16,08,19.70
2015,07,15,16,09,19.70
2015,07,15,16,10,19.70
2015,07,15,16,11,19.60
2015,07,15,16,12,19.60
2015,07,15,16,13,19.60
2015,07,15,16,14,19.60
2015,07,15,16,15,19.60
2015,07,15,16,16,19.60
2015,07,15,16,17,19.60
2015,07,15,16,18,19.70
2015,07,15,16,19,19.70
2015,07,15,16,20,19.80
2015,07,15,16,21,19.80
2015,07,15,16,22,19.90
2015,07,15,16,23,19.90
2015,07,15,16,24,19.90
2015,07,15,16,25,19.90
2015,07,15,16,26,19.90
2015,07,15,16,27,20.00
2015,07,15,16,28,20.10
2015,07,15,16,29,20.20
2015,07,15,16,30,20.30
2015,07,15,16,31,20.30
2015,07,15,16,32,20.40
2015,07,15,16,33,20.50
2015,07,15,16,34,20.60
2015,07,15,16,35,20.70
2015,07,15,16,36,20.80
2015,07,15,16,37,20.90
2015,07,15,16,38,21.00
2015,07,15,16,39,21.00
2015,07,15,16,40,21.00
2015,07,15,16,41,21.00
2015,07,15,16,42,21.00
2015,07,15,16,43,21.00
2015,07,15,16,44,20.90
2015,07,15,16,45,20.90
2015,07,15,16,46,20.90
2015,07,15,16,47,20.90
2015,07,15,16,48,20.90
2015,07,15,16,49,20.90
2015,07,15,16,50,20.90
2015,07,15,16,51,20.90
2015,07,15,16,52,21.00
2015,07,15,16,53,21.00
2015,07,15,16,54,20.90
2015,07,15,16,55,20.90
2015,07,15,16,56,20.80
2015,07,15,16,57,20.70
2015,07,15,16,58,20.60
2015,07,15,16,59,20.50
2015,07,15,17,00,20.40
2015,07,15,17,01,20.30
2015,07,15,17,02,20.20
2015,07,15,17,03,20.10
2015,07,15,17,04,20.10
2015,07,15,17,05,20.00
2015,07,15,17,06,20.00
2015,07,15,17,07,20.00
2015,07,15,17,08,19.90
2015,07,15,17,09,20.00
2015,07,15,17,10,20.00
2015,07,15,17,11,20.00
2015,07,15,17,12,20.10
2015,07,15,17,13,20.10
2015,07,15,17,14,20.10
2015,07,15,17,15,20.10
2015,07,15,17,16,20.10
2015,07,15,17,17,20.20
2015,07,15,17,18,20.30
2015,07,15,17,19,20.40